Year,Month,Day,Hour,Minute,Value (Times are PST for temperature in C)
2009,07,31,00,00,20.60
2009,07,31,00,01,20.60
2009,07,31,00,02,20.60
2009,07,31,00,03,20.60
2009,07,31,00,04,20.60
2009,07,31,00,05,20.60
2009,07,31,00,06,20.60
2009,07,31,00,07,20.60
2009,07,31,00,08,20.60
2009,07,31,00,09,20.60
2009,07,31,00,10,20.60
2009,07,31,00,11,20.60
2009,07,31,00,12,20.60
2009,07,31,00,13,20.60
2009,07,31,00,14,20.60
2009,07,31,00,15,20.60
2009,07,31,00,16,20.50
2009,07,31,00,17,20.50
2009,07,31,00,18,20.50
2009,07,31,00,19,20.40
2009,07,31,00,20,20.40
2009,07,31,00,21,20.40
2009,07,31,00,22,20.30
2009,07,31,00,23,20.30
2009,07,31,00,24,20.30
2009,07,31,00,25,20.20
2009,07,31,00,26,20.20
2009,07,31,00,27,20.20
2009,07,31,00,28,20.10
2009,07,31,00,29,20.10
2009,07,31,00,30,20.10
2009,07,31,00,31,20.10
2009,07,31,00,32,20.00
2009,07,31,00,33,20.00
2009,07,31,00,34,20.00
2009,07,31,00,35,20.00
2009,07,31,00,36,20.00
2009,07,31,00,37,20.00
2009,07,31,00,38,19.90
2009,07,31,00,39,19.90
2009,07,31,00,40,19.90
2009,07,31,00,41,19.90
2009,07,31,00,42,19.90
2009,07,31,00,43,19.90
2009,07,31,00,44,19.80
2009,07,31,00,45,19.80
2009,07,31,00,46,19.80
2009,07,31,00,47,19.80
2009,07,31,00,48,19.80
2009,07,31,00,49,19.80
2009,07,31,00,50,19.90
2009,07,31,00,51,19.90
2009,07,31,00,52,19.90
2009,07,31,00,53,19.90
2009,07,31,00,54,19.90
2009,07,31,00,55,19.90
2009,07,31,00,56,19.90
2009,07,31,00,57,19.90
2009,07,31,00,58,19.90
2009,07,31,00,59,19.90
2009,07,31,01,00,20.00
2009,07,31,01,01,20.00
2009,07,31,01,02,20.00
2009,07,31,01,03,20.00
2009,07,31,01,04,20.00
2009,07,31,01,05,20.00
2009,07,31,01,06,20.00
2009,07,31,01,07,20.00
2009,07,31,01,08,20.00
2009,07,31,01,09,20.00
2009,07,31,01,10,20.00
2009,07,31,01,11,20.00
2009,07,31,01,12,20.00
2009,07,31,01,13,20.00
2009,07,31,01,14,19.90
2009,07,31,01,15,19.90
2009,07,31,01,16,19.90
2009,07,31,01,17,19.90
2009,07,31,01,18,19.90
2009,07,31,01,19,19.90
2009,07,31,01,20,19.90
2009,07,31,01,21,19.80
2009,07,31,01,22,19.80
2009,07,31,01,23,19.80
2009,07,31,01,24,19.80
2009,07,31,01,25,19.80
2009,07,31,01,26,19.70
2009,07,31,01,27,19.70
2009,07,31,01,28,19.70
2009,07,31,01,29,19.60
2009,07,31,01,30,19.60
2009,07,31,01,31,19.50
2009,07,31,01,32,19.50
2009,07,31,01,33,19.40
2009,07,31,01,34,19.40
2009,07,31,01,35,19.40
2009,07,31,01,36,19.40
2009,07,31,01,37,19.30
2009,07,31,01,38,19.30
2009,07,31,01,39,19.30
2009,07,31,01,40,19.30
2009,07,31,01,41,19.30
2009,07,31,01,42,19.30
2009,07,31,01,43,19.20
2009,07,31,01,44,19.20
2009,07,31,01,45,19.20
2009,07,31,01,46,19.20
2009,07,31,01,47,19.20
2009,07,31,01,48,19.20
2009,07,31,01,49,19.20
2009,07,31,01,50,19.20
2009,07,31,01,51,19.20
2009,07,31,01,52,19.20
2009,07,31,01,53,19.20
2009,07,31,01,54,19.20
2009,07,31,01,55,19.20
2009,07,31,01,56,19.20
2009,07,31,01,57,19.20
2009,07,31,01,58,19.20
2009,07,31,01,59,19.20
2009,07,31,02,00,19.20
2009,07,31,02,01,19.20
2009,07,31,02,02,19.20
2009,07,31,02,03,19.10
2009,07,31,02,04,19.10
2009,07,31,02,05,19.10
2009,07,31,02,06,19.10
2009,07,31,02,07,19.10
2009,07,31,02,08,19.20
2009,07,31,02,09,19.20
2009,07,31,02,10,19.20
2009,07,31,02,11,19.20
2009,07,31,02,12,19.20
2009,07,31,02,13,19.20
2009,07,31,02,14,19.20
2009,07,31,02,15,19.20
2009,07,31,02,16,19.20
2009,07,31,02,17,19.20
2009,07,31,02,18,19.20
2009,07,31,02,19,19.10
2009,07,31,02,20,19.20
2009,07,31,02,21,19.20
2009,07,31,02,22,19.20
2009,07,31,02,23,19.20
2009,07,31,02,24,19.20
2009,07,31,02,25,19.20
2009,07,31,02,26,19.20
2009,07,31,02,27,19.20
2009,07,31,02,28,19.20
2009,07,31,02,29,19.20
2009,07,31,02,30,19.30
2009,07,31,02,31,19.30
2009,07,31,02,32,19.30
2009,07,31,02,33,19.30
2009,07,31,02,34,19.30
2009,07,31,02,35,19.30
2009,07,31,02,36,19.30
2009,07,31,02,37,19.30
2009,07,31,02,38,19.30
2009,07,31,02,39,19.30
2009,07,31,02,40,19.30
2009,07,31,02,41,19.30
2009,07,31,02,42,19.30
2009,07,31,02,43,19.30
2009,07,31,02,44,19.30
2009,07,31,02,45,19.20
2009,07,31,02,46,19.20
2009,07,31,02,47,19.20
2009,07,31,02,48,19.20
2009,07,31,02,49,19.10
2009,07,31,02,50,19.10
2009,07,31,02,51,19.10
2009,07,31,02,52,19.00
2009,07,31,02,53,19.00
2009,07,31,02,54,19.00
2009,07,31,02,55,18.90
2009,07,31,02,56,18.90
2009,07,31,02,57,18.90
2009,07,31,02,58,18.90
2009,07,31,02,59,18.90
2009,07,31,03,00,18.90
2009,07,31,03,01,19.00
2009,07,31,03,02,18.90
2009,07,31,03,03,18.90
2009,07,31,03,04,18.90
2009,07,31,03,05,18.90
2009,07,31,03,06,18.90
2009,07,31,03,07,18.90
2009,07,31,03,08,18.90
2009,07,31,03,09,18.90
2009,07,31,03,10,18.90
2009,07,31,03,11,18.90
2009,07,31,03,12,18.90
2009,07,31,03,13,18.80
2009,07,31,03,14,18.80
2009,07,31,03,15,18.70
2009,07,31,03,16,18.60
2009,07,31,03,17,18.60
2009,07,31,03,18,18.50
2009,07,31,03,19,18.40
2009,07,31,03,20,18.40
2009,07,31,03,21,18.30
2009,07,31,03,22,18.30
2009,07,31,03,23,18.20
2009,07,31,03,24,18.20
2009,07,31,03,25,18.20
2009,07,31,03,26,18.10
2009,07,31,03,27,18.10
2009,07,31,03,28,18.10
2009,07,31,03,29,18.00
2009,07,31,03,30,18.00
2009,07,31,03,31,17.90
2009,07,31,03,32,17.90
2009,07,31,03,33,17.90
2009,07,31,03,34,17.90
2009,07,31,03,35,17.80
2009,07,31,03,36,17.80
2009,07,31,03,37,17.70
2009,07,31,03,38,17.70
2009,07,31,03,39,17.60
2009,07,31,03,40,17.50
2009,07,31,03,41,17.40
2009,07,31,03,42,17.40
2009,07,31,03,43,17.30
2009,07,31,03,44,17.30
2009,07,31,03,45,17.20
2009,07,31,03,46,17.20
2009,07,31,03,47,17.10
2009,07,31,03,48,17.10
2009,07,31,03,49,17.00
2009,07,31,03,50,17.00
2009,07,31,03,51,16.90
2009,07,31,03,52,16.90
2009,07,31,03,53,16.80
2009,07,31,03,54,16.80
2009,07,31,03,55,16.70
2009,07,31,03,56,16.70
2009,07,31,03,57,16.60
2009,07,31,03,58,16.60
2009,07,31,03,59,16.60
2009,07,31,04,00,16.50
2009,07,31,04,01,16.50
2009,07,31,04,02,16.50
2009,07,31,04,03,16.40
2009,07,31,04,04,16.40
2009,07,31,04,05,16.40
2009,07,31,04,06,16.40
2009,07,31,04,07,16.40
2009,07,31,04,08,16.40
2009,07,31,04,09,16.30
2009,07,31,04,10,16.30
2009,07,31,04,11,16.30
2009,07,31,04,12,16.30
2009,07,31,04,13,16.30
2009,07,31,04,14,16.30
2009,07,31,04,15,16.20
2009,07,31,04,16,16.20
2009,07,31,04,17,16.20
2009,07,31,04,18,16.20
2009,07,31,04,19,16.10
2009,07,31,04,20,16.10
2009,07,31,04,21,16.10
2009,07,31,04,22,16.00
2009,07,31,04,23,16.00
2009,07,31,04,24,15.90
2009,07,31,04,25,15.90
2009,07,31,04,26,15.90
2009,07,31,04,27,15.80
2009,07,31,04,28,15.80
2009,07,31,04,29,15.80
2009,07,31,04,30,15.80
2009,07,31,04,31,15.80
2009,07,31,04,32,15.70
2009,07,31,04,33,15.70
2009,07,31,04,34,15.70
2009,07,31,04,35,15.70
2009,07,31,04,36,15.60
2009,07,31,04,37,15.60
2009,07,31,04,38,15.60
2009,07,31,04,39,15.50
2009,07,31,04,40,15.50
2009,07,31,04,41,15.50
2009,07,31,04,42,15.40
2009,07,31,04,43,15.40
2009,07,31,04,44,15.40
2009,07,31,04,45,15.40
2009,07,31,04,46,15.40
2009,07,31,04,47,15.40
2009,07,31,04,48,15.30
2009,07,31,04,49,15.30
2009,07,31,04,50,15.30
2009,07,31,04,51,15.30
2009,07,31,04,52,15.30
2009,07,31,04,53,15.20
2009,07,31,04,54,15.20
2009,07,31,04,55,15.20
2009,07,31,04,56,15.20
2009,07,31,04,57,15.10
2009,07,31,04,58,15.10
2009,07,31,04,59,15.00
2009,07,31,05,00,15.00
2009,07,31,05,01,15.00
2009,07,31,05,02,15.00
2009,07,31,05,03,15.00
2009,07,31,05,04,15.00
2009,07,31,05,05,15.00
2009,07,31,05,06,15.00
2009,07,31,05,07,15.00
2009,07,31,05,08,15.00
2009,07,31,05,09,15.00
2009,07,31,05,10,15.00
2009,07,31,05,11,15.00
2009,07,31,05,12,15.00
2009,07,31,05,13,15.00
2009,07,31,05,14,15.00
2009,07,31,05,15,14.90
2009,07,31,05,16,14.90
2009,07,31,05,17,14.80
2009,07,31,05,18,14.80
2009,07,31,05,19,14.80
2009,07,31,05,20,14.80
2009,07,31,05,21,14.70
2009,07,31,05,22,14.70
2009,07,31,05,23,14.70
2009,07,31,05,24,14.70
2009,07,31,05,25,14.60
2009,07,31,05,26,14.60
2009,07,31,05,27,14.60
2009,07,31,05,28,14.60
2009,07,31,05,29,14.60
2009,07,31,05,30,14.60
2009,07,31,05,31,14.60
2009,07,31,05,32,14.60
2009,07,31,05,33,14.60
2009,07,31,05,34,14.50
2009,07,31,05,35,14.50
2009,07,31,05,36,14.50
2009,07,31,05,37,14.50
2009,07,31,05,38,14.50
2009,07,31,05,39,14.40
2009,07,31,05,40,14.40
2009,07,31,05,41,14.40
2009,07,31,05,42,14.40
2009,07,31,05,43,14.40
2009,07,31,05,44,14.40
2009,07,31,05,45,14.40
2009,07,31,05,46,14.40
2009,07,31,05,47,14.40
2009,07,31,05,48,14.30
2009,07,31,05,49,14.30
2009,07,31,05,50,14.30
2009,07,31,05,51,14.30
2009,07,31,05,52,14.30
2009,07,31,05,53,14.30
2009,07,31,05,54,14.20
2009,07,31,05,55,14.20
2009,07,31,05,56,14.20
2009,07,31,05,57,14.20
2009,07,31,05,58,14.20
2009,07,31,05,59,14.20
2009,07,31,06,00,14.20
2009,07,31,06,01,14.20
2009,07,31,06,02,14.20
2009,07,31,06,03,14.20
2009,07,31,06,04,14.20
2009,07,31,06,05,14.20
2009,07,31,06,06,14.20
2009,07,31,06,07,14.20
2009,07,31,06,08,14.20
2009,07,31,06,09,14.20
2009,07,31,06,10,14.20
2009,07,31,06,11,14.20
2009,07,31,06,12,14.20
2009,07,31,06,13,14.20
2009,07,31,06,14,14.20
2009,07,31,06,15,14.20
2009,07,31,06,16,14.20
2009,07,31,06,17,14.20
2009,07,31,06,18,14.20
2009,07,31,06,19,14.20
2009,07,31,06,20,14.20
2009,07,31,06,21,14.20
2009,07,31,06,22,14.20
2009,07,31,06,23,14.20
2009,07,31,06,24,14.20
2009,07,31,06,25,14.20
2009,07,31,06,26,14.20
2009,07,31,06,27,14.20
2009,07,31,06,28,14.30
2009,07,31,06,29,14.30
2009,07,31,06,30,14.30
2009,07,31,06,31,14.30
2009,07,31,06,32,14.30
2009,07,31,06,33,14.30
2009,07,31,06,34,14.30
2009,07,31,06,35,14.40
2009,07,31,06,36,14.40
2009,07,31,06,37,14.40
2009,07,31,06,38,14.40
2009,07,31,06,39,14.50
2009,07,31,06,40,14.50
2009,07,31,06,41,14.50
2009,07,31,06,42,14.50
2009,07,31,06,43,14.60
2009,07,31,06,44,14.60
2009,07,31,06,45,14.60
2009,07,31,06,46,14.70
2009,07,31,06,47,14.70
2009,07,31,06,48,14.70
2009,07,31,06,49,14.70
2009,07,31,06,50,14.70
2009,07,31,06,51,14.70
2009,07,31,06,52,14.70
2009,07,31,06,53,14.70
2009,07,31,06,54,14.70
2009,07,31,06,55,14.70
2009,07,31,06,56,14.80
2009,07,31,06,57,14.80
2009,07,31,06,58,14.80
2009,07,31,06,59,14.80
2009,07,31,07,00,14.80
2009,07,31,07,01,14.80
2009,07,31,07,02,14.90
2009,07,31,07,03,14.90
2009,07,31,07,04,15.00
2009,07,31,07,05,15.00
2009,07,31,07,06,15.00
2009,07,31,07,07,15.00
2009,07,31,07,08,15.00
2009,07,31,07,09,15.00
2009,07,31,07,10,15.00
2009,07,31,07,11,15.00
2009,07,31,07,12,15.00
2009,07,31,07,13,15.00
2009,07,31,07,14,15.10
2009,07,31,07,15,15.20
2009,07,31,07,16,15.20
2009,07,31,07,17,15.30
2009,07,31,07,18,15.30
2009,07,31,07,19,15.40
2009,07,31,07,20,15.50
2009,07,31,07,21,15.50
2009,07,31,07,22,15.60
2009,07,31,07,23,15.70
2009,07,31,07,24,15.70
2009,07,31,07,25,15.70
2009,07,31,07,26,15.70
2009,07,31,07,27,15.70
2009,07,31,07,28,15.70
2009,07,31,07,29,15.70
2009,07,31,07,30,15.70
2009,07,31,07,31,15.70
2009,07,31,07,32,15.70
2009,07,31,07,33,15.80
2009,07,31,07,34,15.80
2009,07,31,07,35,15.80
2009,07,31,07,36,15.80
2009,07,31,07,37,15.80
2009,07,31,07,38,15.70
2009,07,31,07,39,15.70
2009,07,31,07,40,15.70
2009,07,31,07,41,15.70
2009,07,31,07,42,15.70
2009,07,31,07,43,15.70
2009,07,31,07,44,15.60
2009,07,31,07,45,15.60
2009,07,31,07,46,15.60
2009,07,31,07,47,15.70
2009,07,31,07,48,15.70
2009,07,31,07,49,15.70
2009,07,31,07,50,15.80
2009,07,31,07,51,15.80
2009,07,31,07,52,15.80
2009,07,31,07,53,15.80
2009,07,31,07,54,15.80
2009,07,31,07,55,15.90
2009,07,31,07,56,15.90
2009,07,31,07,57,15.90
2009,07,31,07,58,15.90
2009,07,31,07,59,16.00
2009,07,31,08,00,16.00
2009,07,31,08,01,16.10
2009,07,31,08,02,16.10
2009,07,31,08,03,16.20
2009,07,31,08,04,16.20
2009,07,31,08,05,16.10
2009,07,31,08,06,16.10
2009,07,31,08,07,16.10
2009,07,31,08,08,16.10
2009,07,31,08,09,16.10
2009,07,31,08,10,16.10
2009,07,31,08,11,16.20
2009,07,31,08,12,16.20
2009,07,31,08,13,16.30
2009,07,31,08,14,16.30
2009,07,31,08,15,16.40
2009,07,31,08,16,16.40
2009,07,31,08,17,16.40
2009,07,31,08,18,16.50
2009,07,31,08,19,16.50
2009,07,31,08,20,16.50
2009,07,31,08,21,16.60
2009,07,31,08,22,16.60
2009,07,31,08,23,16.60
2009,07,31,08,24,16.70
2009,07,31,08,25,16.70
2009,07,31,08,26,16.80
2009,07,31,08,27,16.80
2009,07,31,08,28,16.90
2009,07,31,08,29,16.90
2009,07,31,08,30,16.90
2009,07,31,08,31,16.80
2009,07,31,08,32,16.80
2009,07,31,08,33,16.90
2009,07,31,08,34,16.90
2009,07,31,08,35,16.90
2009,07,31,08,36,17.00
2009,07,31,08,37,17.10
2009,07,31,08,38,17.10
2009,07,31,08,39,17.20
2009,07,31,08,40,17.20
2009,07,31,08,41,17.20
2009,07,31,08,42,17.10
2009,07,31,08,43,17.10
2009,07,31,08,44,17.10
2009,07,31,08,45,17.10
2009,07,31,08,46,17.20
2009,07,31,08,47,17.30
2009,07,31,08,48,17.40
2009,07,31,08,49,17.50
2009,07,31,08,50,17.50
2009,07,31,08,51,17.60
2009,07,31,08,52,17.60
2009,07,31,08,53,17.50
2009,07,31,08,54,17.50
2009,07,31,08,55,17.50
2009,07,31,08,56,17.40
2009,07,31,08,57,17.40
2009,07,31,08,58,17.40
2009,07,31,08,59,17.40
2009,07,31,09,00,17.40
2009,07,31,09,01,17.40
2009,07,31,09,02,17.40
2009,07,31,09,03,17.40
2009,07,31,09,04,17.40
2009,07,31,09,05,17.30
2009,07,31,09,06,17.30
2009,07,31,09,07,17.40
2009,07,31,09,08,17.40
2009,07,31,09,09,17.40
2009,07,31,09,10,17.50
2009,07,31,09,11,17.60
2009,07,31,09,12,17.70
2009,07,31,09,13,17.80
2009,07,31,09,14,17.90
2009,07,31,09,15,17.90
2009,07,31,09,16,17.90
2009,07,31,09,17,18.00
2009,07,31,09,18,18.00
2009,07,31,09,19,18.00
2009,07,31,09,20,18.10
2009,07,31,09,21,18.10
2009,07,31,09,22,18.00
2009,07,31,09,23,17.90
2009,07,31,09,24,17.90
2009,07,31,09,25,17.90
2009,07,31,09,26,18.00
2009,07,31,09,27,18.00
2009,07,31,09,28,18.00
2009,07,31,09,29,17.80
2009,07,31,09,30,17.80
2009,07,31,09,31,17.70
2009,07,31,09,32,17.60
2009,07,31,09,33,17.60
2009,07,31,09,34,17.60
2009,07,31,09,35,17.60
2009,07,31,09,36,17.60
2009,07,31,09,37,17.70
2009,07,31,09,38,17.80
2009,07,31,09,39,17.90
2009,07,31,09,40,18.00
2009,07,31,09,41,17.90
2009,07,31,09,42,17.90
2009,07,31,09,43,17.80
2009,07,31,09,44,17.80
2009,07,31,09,45,17.70
2009,07,31,09,46,17.60
2009,07,31,09,47,17.60
2009,07,31,09,48,17.60
2009,07,31,09,49,17.60
2009,07,31,09,50,17.70
2009,07,31,09,51,17.90
2009,07,31,09,52,18.00
2009,07,31,09,53,18.10
2009,07,31,09,54,18.20
2009,07,31,09,55,18.20
2009,07,31,09,56,18.20
2009,07,31,09,57,18.20
2009,07,31,09,58,18.10
2009,07,31,09,59,18.10
2009,07,31,10,00,18.10
2009,07,31,10,01,18.20
2009,07,31,10,02,18.30
2009,07,31,10,03,18.40
2009,07,31,10,04,18.40
2009,07,31,10,05,18.40
2009,07,31,10,06,18.30
2009,07,31,10,07,18.30
2009,07,31,10,08,18.40
2009,07,31,10,09,18.40
2009,07,31,10,10,18.40
2009,07,31,10,11,18.40
2009,07,31,10,12,18.50
2009,07,31,10,13,18.40
2009,07,31,10,14,18.40
2009,07,31,10,15,18.30
2009,07,31,10,16,18.30
2009,07,31,10,17,18.20
2009,07,31,10,18,18.30
2009,07,31,10,19,18.30
2009,07,31,10,20,18.40
2009,07,31,10,21,18.50
2009,07,31,10,22,18.50
2009,07,31,10,23,18.40
2009,07,31,10,24,18.40
2009,07,31,10,25,18.40
2009,07,31,10,26,18.50
2009,07,31,10,27,18.50
2009,07,31,10,28,18.50
2009,07,31,10,29,18.50
2009,07,31,10,30,18.50
2009,07,31,10,31,18.40
2009,07,31,10,32,18.40
2009,07,31,10,33,18.40
2009,07,31,10,34,18.40
2009,07,31,10,35,18.40
2009,07,31,10,36,18.40
2009,07,31,10,37,18.40
2009,07,31,10,38,18.40
2009,07,31,10,39,18.50
2009,07,31,10,40,18.60
2009,07,31,10,41,18.80
2009,07,31,10,42,18.70
2009,07,31,10,43,18.70
2009,07,31,10,44,18.70
2009,07,31,10,45,18.70
2009,07,31,10,46,18.70
2009,07,31,10,47,18.70
2009,07,31,10,48,18.80
2009,07,31,10,49,18.80
2009,07,31,10,50,18.70
2009,07,31,10,51,18.70
2009,07,31,10,52,18.70
2009,07,31,10,53,18.70
2009,07,31,10,54,18.70
2009,07,31,10,55,18.70
2009,07,31,10,56,18.70
2009,07,31,10,57,18.70
2009,07,31,10,58,18.60
2009,07,31,10,59,18.50
2009,07,31,11,00,18.50
2009,07,31,11,01,18.60
2009,07,31,11,02,18.60
2009,07,31,11,03,18.60
2009,07,31,11,04,18.60
2009,07,31,11,05,18.60
2009,07,31,11,06,18.70
2009,07,31,11,07,18.70
2009,07,31,11,08,18.80
2009,07,31,11,09,18.90
2009,07,31,11,10,18.90
2009,07,31,11,11,19.00
2009,07,31,11,12,19.00
2009,07,31,11,13,19.10
2009,07,31,11,14,19.10
2009,07,31,11,15,19.10
2009,07,31,11,16,19.20
2009,07,31,11,17,19.30
2009,07,31,11,18,19.30
2009,07,31,11,19,19.40
2009,07,31,11,20,19.40
2009,07,31,11,21,19.40
2009,07,31,11,22,19.40
2009,07,31,11,23,19.40
2009,07,31,11,24,19.50
2009,07,31,11,25,19.40
2009,07,31,11,26,19.40
2009,07,31,11,27,19.40
2009,07,31,11,28,19.40
2009,07,31,11,29,19.40
2009,07,31,11,30,19.40
2009,07,31,11,31,19.50
2009,07,31,11,32,19.50
2009,07,31,11,33,19.40
2009,07,31,11,34,19.40
2009,07,31,11,35,19.30
2009,07,31,11,36,19.30
2009,07,31,11,37,19.30
2009,07,31,11,38,19.30
2009,07,31,11,39,19.30
2009,07,31,11,40,19.40
2009,07,31,11,41,19.50
2009,07,31,11,42,19.60
2009,07,31,11,43,19.70
2009,07,31,11,44,19.70
2009,07,31,11,45,19.80
2009,07,31,11,46,19.80
2009,07,31,11,47,19.80
2009,07,31,11,48,19.80
2009,07,31,11,49,19.80
2009,07,31,11,50,19.70
2009,07,31,11,51,19.60
2009,07,31,11,52,19.60
2009,07,31,11,53,19.60
2009,07,31,11,54,19.60
2009,07,31,11,55,19.60
2009,07,31,11,56,19.70
2009,07,31,11,57,19.60
2009,07,31,11,58,19.60
2009,07,31,11,59,19.50
2009,07,31,12,00,19.50
2009,07,31,12,01,19.50
2009,07,31,12,02,19.50
2009,07,31,12,03,19.60
2009,07,31,12,04,19.60
2009,07,31,12,05,19.60
2009,07,31,12,06,19.60
2009,07,31,12,07,19.70
2009,07,31,12,08,19.80
2009,07,31,12,09,19.80
2009,07,31,12,10,20.00
2009,07,31,12,11,20.00
2009,07,31,12,12,20.10
2009,07,31,12,13,20.10
2009,07,31,12,14,20.20
2009,07,31,12,15,20.30
2009,07,31,12,16,20.40
2009,07,31,12,17,20.50
2009,07,31,12,18,20.60
2009,07,31,12,19,20.60
2009,07,31,12,20,20.60
2009,07,31,12,21,20.70
2009,07,31,12,22,20.70
2009,07,31,12,23,20.60
2009,07,31,12,24,20.50
2009,07,31,12,25,20.50
2009,07,31,12,26,20.50
2009,07,31,12,27,20.40
2009,07,31,12,28,20.40
2009,07,31,12,29,20.40
2009,07,31,12,30,20.30
2009,07,31,12,31,20.20
2009,07,31,12,32,20.20
2009,07,31,12,33,20.20
2009,07,31,12,34,20.20
2009,07,31,12,35,20.20
2009,07,31,12,36,20.20
2009,07,31,12,37,20.20
2009,07,31,12,38,20.30
2009,07,31,12,39,20.30
2009,07,31,12,40,20.40
2009,07,31,12,41,20.40
2009,07,31,12,42,20.30
2009,07,31,12,43,20.40
2009,07,31,12,44,20.40
2009,07,31,12,45,20.50
2009,07,31,12,46,20.60
2009,07,31,12,47,20.80
2009,07,31,12,48,20.90
2009,07,31,12,49,20.90
2009,07,31,12,50,20.90
2009,07,31,12,51,21.00
2009,07,31,12,52,21.00
2009,07,31,12,53,21.10
2009,07,31,12,54,21.10
2009,07,31,12,55,21.10
2009,07,31,12,56,21.10
2009,07,31,12,57,21.10
2009,07,31,12,58,21.10
2009,07,31,12,59,21.20
2009,07,31,13,00,21.20
2009,07,31,13,01,21.30
2009,07,31,13,02,21.30
2009,07,31,13,03,21.40
2009,07,31,13,04,21.60
2009,07,31,13,05,21.60
2009,07,31,13,06,21.70
2009,07,31,13,07,21.80
2009,07,31,13,08,21.80
2009,07,31,13,09,21.80
2009,07,31,13,10,21.80
2009,07,31,13,11,21.80
2009,07,31,13,12,21.80
2009,07,31,13,13,21.80
2009,07,31,13,14,21.80
2009,07,31,13,15,21.70
2009,07,31,13,16,21.70
2009,07,31,13,17,21.60
2009,07,31,13,18,21.60
2009,07,31,13,19,21.60
2009,07,31,13,20,21.60
2009,07,31,13,21,21.70
2009,07,31,13,22,21.60
2009,07,31,13,23,21.40
2009,07,31,13,24,21.30
2009,07,31,13,25,21.20
2009,07,31,13,26,21.20
2009,07,31,13,27,21.20
2009,07,31,13,28,21.30
2009,07,31,13,29,21.40
2009,07,31,13,30,21.50
2009,07,31,13,31,21.60
2009,07,31,13,32,21.70
2009,07,31,13,33,21.60
2009,07,31,13,34,21.60
2009,07,31,13,35,21.60
2009,07,31,13,36,21.60
2009,07,31,13,37,21.50
2009,07,31,13,38,21.40
2009,07,31,13,39,21.30
2009,07,31,13,40,21.30
2009,07,31,13,41,21.40
2009,07,31,13,42,21.40
2009,07,31,13,43,21.40
2009,07,31,13,44,21.50
2009,07,31,13,45,21.60
2009,07,31,13,46,21.70
2009,07,31,13,47,21.80
2009,07,31,13,48,21.90
2009,07,31,13,49,22.00
2009,07,31,13,50,22.10
2009,07,31,13,51,22.30
2009,07,31,13,52,22.40
2009,07,31,13,53,22.50
2009,07,31,13,54,22.50
2009,07,31,13,55,22.30
2009,07,31,13,56,22.20
2009,07,31,13,57,22.20
2009,07,31,13,58,22.10
2009,07,31,13,59,22.10
2009,07,31,14,00,22.10
2009,07,31,14,01,22.20
2009,07,31,14,02,22.30
2009,07,31,14,03,22.40
2009,07,31,14,04,22.60
2009,07,31,14,05,22.70
2009,07,31,14,06,22.80
2009,07,31,14,07,22.80
2009,07,31,14,08,22.80
2009,07,31,14,09,22.80
2009,07,31,14,10,22.80
2009,07,31,14,11,22.90
2009,07,31,14,12,22.90
2009,07,31,14,13,23.00
2009,07,31,14,14,23.10
2009,07,31,14,15,23.20
2009,07,31,14,16,23.20
2009,07,31,14,17,23.20
2009,07,31,14,18,23.20
2009,07,31,14,19,23.30
2009,07,31,14,20,23.30
2009,07,31,14,21,23.30
2009,07,31,14,22,23.20
2009,07,31,14,23,23.20
2009,07,31,14,24,23.10
2009,07,31,14,25,23.10
2009,07,31,14,26,23.20
2009,07,31,14,27,23.20
2009,07,31,14,28,23.10
2009,07,31,14,29,23.20
2009,07,31,14,30,23.10
2009,07,31,14,31,23.10
2009,07,31,14,32,23.10
2009,07,31,14,33,23.20
2009,07,31,14,34,23.10
2009,07,31,14,35,23.10
2009,07,31,14,36,23.10
2009,07,31,14,37,23.10
2009,07,31,14,38,23.20
2009,07,31,14,39,23.20
2009,07,31,14,40,23.30
2009,07,31,14,41,23.40
2009,07,31,14,42,23.50
2009,07,31,14,43,23.60
2009,07,31,14,44,23.80
2009,07,31,14,45,23.90
2009,07,31,14,46,24.00
2009,07,31,14,47,24.10
2009,07,31,14,48,24.20
2009,07,31,14,49,24.10
2009,07,31,14,50,23.90
2009,07,31,14,51,23.80
2009,07,31,14,52,23.70
2009,07,31,14,53,23.60
2009,07,31,14,54,23.60
2009,07,31,14,55,23.50
2009,07,31,14,56,23.40
2009,07,31,14,57,23.40
2009,07,31,14,58,23.30
2009,07,31,14,59,23.30
2009,07,31,15,00,23.40
2009,07,31,15,01,23.30
2009,07,31,15,02,23.30
2009,07,31,15,03,23.30
2009,07,31,15,04,23.40
2009,07,31,15,05,23.40
2009,07,31,15,06,23.50
2009,07,31,15,07,23.60
2009,07,31,15,08,23.70
2009,07,31,15,09,23.70
2009,07,31,15,10,23.70
2009,07,31,15,11,23.80
2009,07,31,15,12,23.80
2009,07,31,15,13,23.70
2009,07,31,15,14,23.50
2009,07,31,15,15,23.40
2009,07,31,15,16,23.40
2009,07,31,15,17,23.40
2009,07,31,15,18,23.40
2009,07,31,15,19,23.40
2009,07,31,15,20,23.40
2009,07,31,15,21,23.50
2009,07,31,15,22,23.70
2009,07,31,15,23,23.70
2009,07,31,15,24,23.80
2009,07,31,15,25,23.80
2009,07,31,15,26,23.80
2009,07,31,15,27,23.70
2009,07,31,15,28,23.70
2009,07,31,15,29,23.70
2009,07,31,15,30,23.80
2009,07,31,15,31,23.80
2009,07,31,15,32,23.70
2009,07,31,15,33,23.70
2009,07,31,15,34,23.60
2009,07,31,15,35,23.60
2009,07,31,15,36,23.60
2009,07,31,15,37,23.70
2009,07,31,15,38,23.80
2009,07,31,15,39,23.70
2009,07,31,15,40,23.60
2009,07,31,15,41,23.50
2009,07,31,15,42,23.50
2009,07,31,15,43,23.50
2009,07,31,15,44,23.60
2009,07,31,15,45,23.80
2009,07,31,15,46,24.00
2009,07,31,15,47,24.00
2009,07,31,15,48,24.10
2009,07,31,15,49,24.20
2009,07,31,15,50,24.20
2009,07,31,15,51,24.30
2009,07,31,15,52,24.30
2009,07,31,15,53,24.40
2009,07,31,15,54,24.30
2009,07,31,15,55,24.30
2009,07,31,15,56,24.30
2009,07,31,15,57,24.30
2009,07,31,15,58,24.40
2009,07,31,15,59,24.50
2009,07,31,16,00,24.60
2009,07,31,16,01,24.50
2009,07,31,16,02,24.50
2009,07,31,16,03,24.40
2009,07,31,16,04,24.40
2009,07,31,16,05,24.50
2009,07,31,16,06,24.60
2009,07,31,16,07,24.70
2009,07,31,16,08,24.80
2009,07,31,16,09,24.90
2009,07,31,16,10,25.00
2009,07,31,16,11,25.10
2009,07,31,16,12,25.20
2009,07,31,16,13,25.20
2009,07,31,16,14,25.20
2009,07,31,16,15,25.10
2009,07,31,16,16,25.10
2009,07,31,16,17,25.10
2009,07,31,16,18,25.00
2009,07,31,16,19,25.00
2009,07,31,16,20,25.00
2009,07,31,16,21,25.00
2009,07,31,16,22,25.10
2009,07,31,16,23,25.20
2009,07,31,16,24,25.20
2009,07,31,16,25,25.10
2009,07,31,16,26,25.20
2009,07,31,16,27,25.20
2009,07,31,16,28,25.20
2009,07,31,16,29,25.30
2009,07,31,16,30,25.30
2009,07,31,16,31,25.30
2009,07,31,16,32,25.20
2009,07,31,16,33,25.10
2009,07,31,16,34,25.10
2009,07,31,16,35,25.10
2009,07,31,16,36,25.20
2009,07,31,16,37,25.20
2009,07,31,16,38,25.20
2009,07,31,16,39,25.20
2009,07,31,16,40,25.20
2009,07,31,16,41,25.10
2009,07,31,16,42,25.10
2009,07,31,16,43,24.90
2009,07,31,16,44,24.90
2009,07,31,16,45,25.00
2009,07,31,16,46,25.00
2009,07,31,16,47,24.90
2009,07,31,16,48,24.90
2009,07,31,16,49,24.80
2009,07,31,16,50,24.70
2009,07,31,16,51,24.60
2009,07,31,16,52,24.50
2009,07,31,16,53,24.50
2009,07,31,16,54,24.50
2009,07,31,16,55,24.60
2009,07,31,16,56,24.70
2009,07,31,16,57,24.80
2009,07,31,16,58,24.70
2009,07,31,16,59,24.70
2009,07,31,17,00,24.50
2009,07,31,17,01,24.40
2009,07,31,17,02,24.30
2009,07,31,17,03,24.30
2009,07,31,17,04,24.30
2009,07,31,17,05,24.30
2009,07,31,17,06,24.30
2009,07,31,17,07,24.40
2009,07,31,17,08,24.50
2009,07,31,17,09,24.60
2009,07,31,17,10,24.80
2009,07,31,17,11,24.90
2009,07,31,17,12,25.00
2009,07,31,17,13,25.10
2009,07,31,17,14,25.10
2009,07,31,17,15,25.10
2009,07,31,17,16,25.10
2009,07,31,17,17,25.10
2009,07,31,17,18,25.10
2009,07,31,17,19,25.10